Year,Month,Day,Hour,Minute,Value (Times are PST for temperature in C)
2017,05,27,00,00,16.30
2017,05,27,00,01,16.30
2017,05,27,00,02,16.30
2017,05,27,00,03,16.20
2017,05,27,00,04,16.20
2017,05,27,00,05,16.20
2017,05,27,00,06,16.20
2017,05,27,00,07,16.10
2017,05,27,00,08,16.10
2017,05,27,00,09,16.10
2017,05,27,00,10,16.10
2017,05,27,00,11,16.10
2017,05,27,00,12,16.10
2017,05,27,00,13,16.00
2017,05,27,00,14,16.00
2017,05,27,00,15,16.00
2017,05,27,00,16,15.90
2017,05,27,00,17,15.90
2017,05,27,00,18,15.90
2017,05,27,00,19,15.80
2017,05,27,00,20,15.80
2017,05,27,00,21,15.70
2017,05,27,00,22,15.70
2017,05,27,00,23,15.70
2017,05,27,00,24,15.60
2017,05,27,00,25,15.60
2017,05,27,00,26,15.60
2017,05,27,00,27,15.50
2017,05,27,00,28,15.40
2017,05,27,00,29,15.40
2017,05,27,00,30,15.30
2017,05,27,00,31,15.30
2017,05,27,00,32,15.20
2017,05,27,00,33,15.20
2017,05,27,00,34,15.20
2017,05,27,00,35,15.10
2017,05,27,00,36,15.10
2017,05,27,00,37,15.00
2017,05,27,00,38,14.90
2017,05,27,00,39,14.90
2017,05,27,00,40,14.90
2017,05,27,00,41,14.90
2017,05,27,00,42,14.90
2017,05,27,00,43,14.90
2017,05,27,00,44,14.90
2017,05,27,00,45,14.90
2017,05,27,00,46,14.90
2017,05,27,00,47,14.90
2017,05,27,00,48,14.90
2017,05,27,00,49,14.90
2017,05,27,00,50,14.90
2017,05,27,00,51,14.90
2017,05,27,00,52,14.90
2017,05,27,00,53,14.80
2017,05,27,00,54,14.80
2017,05,27,00,55,14.70
2017,05,27,00,56,14.60
2017,05,27,00,57,14.50
2017,05,27,00,58,14.40
2017,05,27,00,59,14.30
2017,05,27,01,00,14.30
2017,05,27,01,01,14.20
2017,05,27,01,02,14.10
2017,05,27,01,03,14.00
2017,05,27,01,04,14.00
2017,05,27,01,05,13.90
2017,05,27,01,06,13.80
2017,05,27,01,07,13.70
2017,05,27,01,08,13.70
2017,05,27,01,09,13.60
2017,05,27,01,10,13.60
2017,05,27,01,11,13.50
2017,05,27,01,12,13.50
2017,05,27,01,13,13.40
2017,05,27,01,14,13.40
2017,05,27,01,15,13.40
2017,05,27,01,16,13.40
2017,05,27,01,17,13.30
2017,05,27,01,18,13.30
2017,05,27,01,19,13.30
2017,05,27,01,20,13.30
2017,05,27,01,21,13.30
2017,05,27,01,22,13.30
2017,05,27,01,23,13.30
2017,05,27,01,24,13.30
2017,05,27,01,25,13.30
2017,05,27,01,26,13.30
2017,05,27,01,27,13.30
2017,05,27,01,28,13.30
2017,05,27,01,29,13.30
2017,05,27,01,30,13.30
2017,05,27,01,31,13.30
2017,05,27,01,32,13.30
2017,05,27,01,33,13.40
2017,05,27,01,34,13.30
2017,05,27,01,35,13.30
2017,05,27,01,36,13.30
2017,05,27,01,37,13.30
2017,05,27,01,38,13.30
2017,05,27,01,39,13.30
2017,05,27,01,40,13.30
2017,05,27,01,41,13.20
2017,05,27,01,42,13.20
2017,05,27,01,43,13.10
2017,05,27,01,44,13.10
2017,05,27,01,45,13.00
2017,05,27,01,46,13.00
2017,05,27,01,47,12.90
2017,05,27,01,48,12.80
2017,05,27,01,49,12.80
2017,05,27,01,50,12.70
2017,05,27,01,51,12.60
2017,05,27,01,52,12.60
2017,05,27,01,53,12.50
2017,05,27,01,54,12.40
2017,05,27,01,55,12.40
2017,05,27,01,56,12.40
2017,05,27,01,57,12.30
2017,05,27,01,58,12.30
2017,05,27,01,59,12.30
2017,05,27,02,00,12.20
2017,05,27,02,01,12.20
2017,05,27,02,02,12.20
2017,05,27,02,03,12.10
2017,05,27,02,04,12.10
2017,05,27,02,05,12.10
2017,05,27,02,06,12.00
2017,05,27,02,07,12.00
2017,05,27,02,08,12.00
2017,05,27,02,09,12.00
2017,05,27,02,10,11.90
2017,05,27,02,11,11.90
2017,05,27,02,12,11.90
2017,05,27,02,13,11.90
2017,05,27,02,14,11.90
2017,05,27,02,15,11.90
2017,05,27,02,16,11.90
2017,05,27,02,17,11.90
2017,05,27,02,18,11.90
2017,05,27,02,19,11.80
2017,05,27,02,20,11.80
2017,05,27,02,21,11.80
2017,05,27,02,22,11.80
2017,05,27,02,23,11.80
2017,05,27,02,24,11.80
2017,05,27,02,25,11.80
2017,05,27,02,26,11.80
2017,05,27,02,27,11.80
2017,05,27,02,28,11.80
2017,05,27,02,29,11.80
2017,05,27,02,30,11.80
2017,05,27,02,31,11.80
2017,05,27,02,32,11.80
2017,05,27,02,33,11.80
2017,05,27,02,34,11.80
2017,05,27,02,35,11.80
2017,05,27,02,36,11.80
2017,05,27,02,37,11.80
2017,05,27,02,38,11.80
2017,05,27,02,39,11.80
2017,05,27,02,40,11.80
2017,05,27,02,41,11.90
2017,05,27,02,42,11.90
2017,05,27,02,43,11.90
2017,05,27,02,44,12.00
2017,05,27,02,45,12.10
2017,05,27,02,46,12.10
2017,05,27,02,47,12.10
2017,05,27,02,48,12.10
2017,05,27,02,49,12.20
2017,05,27,02,50,12.20
2017,05,27,02,51,12.20
2017,05,27,02,52,12.20
2017,05,27,02,53,12.20
2017,05,27,02,54,12.20
2017,05,27,02,55,12.20
2017,05,27,02,56,12.20
2017,05,27,02,57,12.30
2017,05,27,02,58,12.30
2017,05,27,02,59,12.30
2017,05,27,03,00,12.40
2017,05,27,03,01,12.40
2017,05,27,03,02,12.40
2017,05,27,03,03,12.40
2017,05,27,03,04,12.40
2017,05,27,03,05,12.50
2017,05,27,03,06,12.50
2017,05,27,03,07,12.50
2017,05,27,03,08,12.50
2017,05,27,03,09,12.50
2017,05,27,03,10,12.50
2017,05,27,03,11,12.50
2017,05,27,03,12,12.50
2017,05,27,03,13,12.50
2017,05,27,03,14,12.50
2017,05,27,03,15,12.50
2017,05,27,03,16,12.50
2017,05,27,03,17,12.50
2017,05,27,03,18,12.50
2017,05,27,03,19,12.50
2017,05,27,03,20,12.50
2017,05,27,03,21,12.50
2017,05,27,03,22,12.60
2017,05,27,03,23,12.60
2017,05,27,03,24,12.60
2017,05,27,03,25,12.60
2017,05,27,03,26,12.60
2017,05,27,03,27,12.60
2017,05,27,03,28,12.60
2017,05,27,03,29,12.60
2017,05,27,03,30,12.60
2017,05,27,03,31,12.60
2017,05,27,03,32,12.60
2017,05,27,03,33,12.60
2017,05,27,03,34,12.60
2017,05,27,03,35,12.60
2017,05,27,03,36,12.60
2017,05,27,03,37,12.60
2017,05,27,03,38,12.60
2017,05,27,03,39,12.60
2017,05,27,03,40,12.60
2017,05,27,03,41,12.60
2017,05,27,03,42,12.60
2017,05,27,03,43,12.60
2017,05,27,03,44,12.60
2017,05,27,03,45,12.60
2017,05,27,03,46,12.60
2017,05,27,03,47,12.60
2017,05,27,03,48,12.60
2017,05,27,03,49,12.60
2017,05,27,03,50,12.60
2017,05,27,03,51,12.60
2017,05,27,03,52,12.60
2017,05,27,03,53,12.60
2017,05,27,03,54,12.60
2017,05,27,03,55,12.70
2017,05,27,03,56,12.70
2017,05,27,03,57,12.70
2017,05,27,03,58,12.70
2017,05,27,03,59,12.70
2017,05,27,04,00,12.70
2017,05,27,04,01,12.70
2017,05,27,04,02,12.70
2017,05,27,04,03,12.60
2017,05,27,04,04,12.60
2017,05,27,04,05,12.70
2017,05,27,04,06,12.60
2017,05,27,04,07,12.60
2017,05,27,04,08,12.60
2017,05,27,04,09,12.60
2017,05,27,04,10,12.70
2017,05,27,04,11,12.70
2017,05,27,04,12,12.70
2017,05,27,04,13,12.70
2017,05,27,04,14,12.70
2017,05,27,04,15,12.70
2017,05,27,04,16,12.70
2017,05,27,04,17,12.70
2017,05,27,04,18,12.70
2017,05,27,04,19,12.70
2017,05,27,04,20,12.60
2017,05,27,04,21,12.60
2017,05,27,04,22,12.60
2017,05,27,04,23,12.60
2017,05,27,04,24,12.60
2017,05,27,04,25,12.60
2017,05,27,04,26,12.60
2017,05,27,04,27,12.60
2017,05,27,04,28,12.50
2017,05,27,04,29,12.50
2017,05,27,04,30,12.50
2017,05,27,04,31,12.40
2017,05,27,04,32,12.40
2017,05,27,04,33,12.40
2017,05,27,04,34,12.40
2017,05,27,04,35,12.40
2017,05,27,04,36,12.40
2017,05,27,04,37,12.40
2017,05,27,04,38,12.40
2017,05,27,04,39,12.40
2017,05,27,04,40,12.40
2017,05,27,04,41,12.40
2017,05,27,04,42,12.40
2017,05,27,04,43,12.40
2017,05,27,04,44,12.40
2017,05,27,04,45,12.40
2017,05,27,04,46,12.40
2017,05,27,04,47,12.40
2017,05,27,04,48,12.40
2017,05,27,04,49,12.40
2017,05,27,04,50,12.40
2017,05,27,04,51,12.40
2017,05,27,04,52,12.40
2017,05,27,04,53,12.40
2017,05,27,04,54,12.40
2017,05,27,04,55,12.40
2017,05,27,04,56,12.40
2017,05,27,04,57,12.40
2017,05,27,04,58,12.40
2017,05,27,04,59,12.40
2017,05,27,05,00,12.40
2017,05,27,05,01,12.40
2017,05,27,05,02,12.40
2017,05,27,05,03,12.40
2017,05,27,05,04,12.40
2017,05,27,05,05,12.40
2017,05,27,05,06,12.40
2017,05,27,05,07,12.40
2017,05,27,05,08,12.40
2017,05,27,05,09,12.40
2017,05,27,05,10,12.40
2017,05,27,05,11,12.40
2017,05,27,05,12,12.40
2017,05,27,05,13,12.40
2017,05,27,05,14,12.40
2017,05,27,05,15,12.40
2017,05,27,05,16,12.40
2017,05,27,05,17,12.40
2017,05,27,05,18,12.40
2017,05,27,05,19,12.50
2017,05,27,05,20,12.50
2017,05,27,05,21,12.50
2017,05,27,05,22,12.50
2017,05,27,05,23,12.50
2017,05,27,05,24,12.50
2017,05,27,05,25,12.50
2017,05,27,05,26,12.50
2017,05,27,05,27,12.50
2017,05,27,05,28,12.50
2017,05,27,05,29,12.50
2017,05,27,05,30,12.50
2017,05,27,05,31,12.60
2017,05,27,05,32,12.60
2017,05,27,05,33,12.60
2017,05,27,05,34,12.60
2017,05,27,05,35,12.70
2017,05,27,05,36,12.70
2017,05,27,05,37,12.70
2017,05,27,05,38,12.80
2017,05,27,05,39,12.80
2017,05,27,05,40,12.80
2017,05,27,05,41,12.90
2017,05,27,05,42,12.90
2017,05,27,05,43,12.90
2017,05,27,05,44,13.00
2017,05,27,05,45,13.00
2017,05,27,05,46,13.10
2017,05,27,05,47,13.10
2017,05,27,05,48,13.10
2017,05,27,05,49,13.10
2017,05,27,05,50,13.20
2017,05,27,05,51,13.20
2017,05,27,05,52,13.20
2017,05,27,05,53,13.30
2017,05,27,05,54,13.30
2017,05,27,05,55,13.30
2017,05,27,05,56,13.30
2017,05,27,05,57,13.30
2017,05,27,05,58,13.30
2017,05,27,05,59,13.30
2017,05,27,06,00,13.40
2017,05,27,06,01,13.40
2017,05,27,06,02,13.40
2017,05,27,06,03,13.40
2017,05,27,06,04,13.40
2017,05,27,06,05,13.40
2017,05,27,06,06,13.40
2017,05,27,06,07,13.40
2017,05,27,06,08,13.50
2017,05,27,06,09,13.50
2017,05,27,06,10,13.50
2017,05,27,06,11,13.50
2017,05,27,06,12,13.50
2017,05,27,06,13,13.60
2017,05,27,06,14,13.60
2017,05,27,06,15,13.60
2017,05,27,06,16,13.70
2017,05,27,06,17,13.70
2017,05,27,06,18,13.80
2017,05,27,06,19,13.80
2017,05,27,06,20,13.80
2017,05,27,06,21,13.90
2017,05,27,06,22,13.90
2017,05,27,06,23,13.90
2017,05,27,06,24,13.90
2017,05,27,06,25,13.90
2017,05,27,06,26,13.90
2017,05,27,06,27,14.00
2017,05,27,06,28,14.00
2017,05,27,06,29,14.00
2017,05,27,06,30,14.00
2017,05,27,06,31,14.10
2017,05,27,06,32,14.10
2017,05,27,06,33,14.10
2017,05,27,06,34,14.10
2017,05,27,06,35,14.20
2017,05,27,06,36,14.20
2017,05,27,06,37,14.30
2017,05,27,06,38,14.40
2017,05,27,06,39,14.40
2017,05,27,06,40,14.50
2017,05,27,06,41,14.60
2017,05,27,06,42,14.60
2017,05,27,06,43,14.70
2017,05,27,06,44,14.70
2017,05,27,06,45,14.80
2017,05,27,06,46,14.80
2017,05,27,06,47,14.80
2017,05,27,06,48,14.90
2017,05,27,06,49,14.90
2017,05,27,06,50,14.90
2017,05,27,06,51,14.90
2017,05,27,06,52,14.90
2017,05,27,06,53,14.90
2017,05,27,06,54,14.90
2017,05,27,06,55,14.90
2017,05,27,06,56,14.90
2017,05,27,06,57,14.90
2017,05,27,06,58,15.00
2017,05,27,06,59,15.00
2017,05,27,07,00,14.90
2017,05,27,07,01,14.90
2017,05,27,07,02,14.90
2017,05,27,07,03,14.90
2017,05,27,07,04,14.80
2017,05,27,07,05,14.80
2017,05,27,07,06,14.80
2017,05,27,07,07,14.80
2017,05,27,07,08,14.80
2017,05,27,07,09,14.70
2017,05,27,07,10,14.80
2017,05,27,07,11,14.70
2017,05,27,07,12,14.80
2017,05,27,07,13,14.80
2017,05,27,07,14,14.80
2017,05,27,07,15,14.80
2017,05,27,07,16,14.80
2017,05,27,07,17,14.90
2017,05,27,07,18,14.90
2017,05,27,07,19,15.00
2017,05,27,07,20,15.00
2017,05,27,07,21,15.00
2017,05,27,07,22,15.00
2017,05,27,07,23,15.00
2017,05,27,07,24,14.90
2017,05,27,07,25,14.90
2017,05,27,07,26,14.90
2017,05,27,07,27,15.00
2017,05,27,07,28,15.00
2017,05,27,07,29,15.10
2017,05,27,07,30,15.10
2017,05,27,07,31,15.10
2017,05,27,07,32,15.20
2017,05,27,07,33,15.20
2017,05,27,07,34,15.30
2017,05,27,07,35,15.30
2017,05,27,07,36,15.30
2017,05,27,07,37,15.40
2017,05,27,07,38,15.40
2017,05,27,07,39,15.40
2017,05,27,07,40,15.50
2017,05,27,07,41,15.50
2017,05,27,07,42,15.50
2017,05,27,07,43,15.60
2017,05,27,07,44,15.60
2017,05,27,07,45,15.60
2017,05,27,07,46,15.70
2017,05,27,07,47,15.70
2017,05,27,07,48,15.70
2017,05,27,07,49,15.70
2017,05,27,07,50,15.70
2017,05,27,07,51,15.80
2017,05,27,07,52,15.80
2017,05,27,07,53,15.90
2017,05,27,07,54,15.90
2017,05,27,07,55,15.90
2017,05,27,07,56,16.00
2017,05,27,07,57,16.00
2017,05,27,07,58,15.90
2017,05,27,07,59,15.90
2017,05,27,08,00,15.90
2017,05,27,08,01,15.80
2017,05,27,08,02,15.80
2017,05,27,08,03,15.70
2017,05,27,08,04,15.70
2017,05,27,08,05,15.70
2017,05,27,08,06,15.60
2017,05,27,08,07,15.60
2017,05,27,08,08,15.60
2017,05,27,08,09,15.60
2017,05,27,08,10,15.60
2017,05,27,08,11,15.60
2017,05,27,08,12,15.60
2017,05,27,08,13,15.70
2017,05,27,08,14,15.70
2017,05,27,08,15,15.70
2017,05,27,08,16,15.80
2017,05,27,08,17,15.80
2017,05,27,08,18,15.90
2017,05,27,08,19,16.00
2017,05,27,08,20,16.00
2017,05,27,08,21,16.00
2017,05,27,08,22,16.10
2017,05,27,08,23,16.10
2017,05,27,08,24,16.10
2017,05,27,08,25,16.10
2017,05,27,08,26,16.10
2017,05,27,08,27,16.00
2017,05,27,08,28,15.90
2017,05,27,08,29,15.80
2017,05,27,08,30,15.70
2017,05,27,08,31,15.70
2017,05,27,08,32,15.70
2017,05,27,08,33,15.70
2017,05,27,08,34,15.70
2017,05,27,08,35,15.60
2017,05,27,08,36,15.60
2017,05,27,08,37,15.60
2017,05,27,08,38,15.60
2017,05,27,08,39,15.60
2017,05,27,08,40,15.60
2017,05,27,08,41,15.60
2017,05,27,08,42,15.70
2017,05,27,08,43,15.70
2017,05,27,08,44,15.70
2017,05,27,08,45,15.70
2017,05,27,08,46,15.70
2017,05,27,08,47,15.80
2017,05,27,08,48,15.80
2017,05,27,08,49,15.80
2017,05,27,08,50,15.90
2017,05,27,08,51,16.00
2017,05,27,08,52,16.00
2017,05,27,08,53,16.00
2017,05,27,08,54,16.10
2017,05,27,08,55,16.10
2017,05,27,08,56,16.20
2017,05,27,08,57,16.20
2017,05,27,08,58,16.20
2017,05,27,08,59,16.20
2017,05,27,09,00,16.20
2017,05,27,09,01,16.30
2017,05,27,09,02,16.30
2017,05,27,09,03,16.40
2017,05,27,09,04,16.40
2017,05,27,09,05,16.40
2017,05,27,09,06,16.40
2017,05,27,09,07,16.40
2017,05,27,09,08,16.50
2017,05,27,09,09,16.50
2017,05,27,09,10,16.60
2017,05,27,09,11,16.60
2017,05,27,09,12,16.60
2017,05,27,09,13,16.60
2017,05,27,09,14,16.60
2017,05,27,09,15,16.60
2017,05,27,09,16,16.60
2017,05,27,09,17,16.60
2017,05,27,09,18,16.60
2017,05,27,09,19,16.60
2017,05,27,09,20,16.60
2017,05,27,09,21,16.50
2017,05,27,09,22,16.60
2017,05,27,09,23,16.60
2017,05,27,09,24,16.60
2017,05,27,09,25,16.60
2017,05,27,09,26,16.60
2017,05,27,09,27,16.60
2017,05,27,09,28,16.70
2017,05,27,09,29,16.70
2017,05,27,09,30,16.70
2017,05,27,09,31,16.70
2017,05,27,09,32,16.80
2017,05,27,09,33,16.80
2017,05,27,09,34,16.90
2017,05,27,09,35,16.90
2017,05,27,09,36,17.00
2017,05,27,09,37,17.00
2017,05,27,09,38,17.00
2017,05,27,09,39,17.00
2017,05,27,09,40,17.00
2017,05,27,09,41,17.00
2017,05,27,09,42,17.00
2017,05,27,09,43,17.00
2017,05,27,09,44,16.90
2017,05,27,09,45,16.90
2017,05,27,09,46,17.00
2017,05,27,09,47,17.00
2017,05,27,09,48,17.00
2017,05,27,09,49,17.00
2017,05,27,09,50,17.00
2017,05,27,09,51,16.90
2017,05,27,09,52,17.00
2017,05,27,09,53,16.90
2017,05,27,09,54,16.90
2017,05,27,09,55,16.90
2017,05,27,09,56,16.80
2017,05,27,09,57,16.80
2017,05,27,09,58,16.80
2017,05,27,09,59,16.70
2017,05,27,10,00,16.60
2017,05,27,10,01,16.60
2017,05,27,10,02,16.60
2017,05,27,10,03,16.60
2017,05,27,10,04,16.70
2017,05,27,10,05,16.80
2017,05,27,10,06,16.80
2017,05,27,10,07,16.90
2017,05,27,10,08,17.00
2017,05,27,10,09,17.00
2017,05,27,10,10,17.10
2017,05,27,10,11,17.10
2017,05,27,10,12,17.10
2017,05,27,10,13,17.00
2017,05,27,10,14,17.00
2017,05,27,10,15,17.00
2017,05,27,10,16,17.00
2017,05,27,10,17,17.10
2017,05,27,10,18,17.10
2017,05,27,10,19,17.20
2017,05,27,10,20,17.30
2017,05,27,10,21,17.30
2017,05,27,10,22,17.40
2017,05,27,10,23,17.60
2017,05,27,10,24,17.70
2017,05,27,10,25,17.80
2017,05,27,10,26,17.90
2017,05,27,10,27,18.00
2017,05,27,10,28,18.00
2017,05,27,10,29,18.10
2017,05,27,10,30,18.10
2017,05,27,10,31,18.20
2017,05,27,10,32,18.20
2017,05,27,10,33,18.20
2017,05,27,10,34,18.20
2017,05,27,10,35,18.20
2017,05,27,10,36,18.30
2017,05,27,10,37,18.30
2017,05,27,10,38,18.30
2017,05,27,10,39,18.30
2017,05,27,10,40,18.30
2017,05,27,10,41,18.20
2017,05,27,10,42,18.10
2017,05,27,10,43,18.10
2017,05,27,10,44,18.10
2017,05,27,10,45,18.10
2017,05,27,10,46,18.10
2017,05,27,10,47,18.10
2017,05,27,10,48,18.10
2017,05,27,10,49,18.10
2017,05,27,10,50,18.20
2017,05,27,10,51,18.20
2017,05,27,10,52,18.10
2017,05,27,10,53,18.10
2017,05,27,10,54,18.10
2017,05,27,10,55,18.10
2017,05,27,10,56,18.10
2017,05,27,10,57,18.20
2017,05,27,10,58,18.30
2017,05,27,10,59,18.30
2017,05,27,11,00,18.30
2017,05,27,11,01,18.40
2017,05,27,11,02,18.40
2017,05,27,11,03,18.40
2017,05,27,11,04,18.40
2017,05,27,11,05,18.40
2017,05,27,11,06,18.50
2017,05,27,11,07,18.60
2017,05,27,11,08,18.60
2017,05,27,11,09,18.60
2017,05,27,11,10,18.70
2017,05,27,11,11,18.70
2017,05,27,11,12,18.80
2017,05,27,11,13,18.90
2017,05,27,11,14,18.90
2017,05,27,11,15,18.90
2017,05,27,11,16,18.90
2017,05,27,11,17,18.90
2017,05,27,11,18,18.90
2017,05,27,11,19,18.90
2017,05,27,11,20,18.90
2017,05,27,11,21,18.90
2017,05,27,11,22,18.90
2017,05,27,11,23,18.90
2017,05,27,11,24,18.90
2017,05,27,11,25,18.80
2017,05,27,11,26,18.80
2017,05,27,11,27,18.80
2017,05,27,11,28,18.80
2017,05,27,11,29,18.80
2017,05,27,11,30,18.80
2017,05,27,11,31,18.80
2017,05,27,11,32,18.80
2017,05,27,11,33,18.90
2017,05,27,11,34,18.90
2017,05,27,11,35,18.90
2017,05,27,11,36,19.00
2017,05,27,11,37,19.00
2017,05,27,11,38,19.00
2017,05,27,11,39,19.00
2017,05,27,11,40,19.10
2017,05,27,11,41,19.10
2017,05,27,11,42,19.10
2017,05,27,11,43,19.10
2017,05,27,11,44,19.10
2017,05,27,11,45,19.10
2017,05,27,11,46,19.00
2017,05,27,11,47,19.00
2017,05,27,11,48,19.00
2017,05,27,11,49,19.00
2017,05,27,11,50,19.00
2017,05,27,11,51,19.00
2017,05,27,11,52,19.10
2017,05,27,11,53,19.10
2017,05,27,11,54,19.10
2017,05,27,11,55,19.10
2017,05,27,11,56,19.10
2017,05,27,11,57,19.10
2017,05,27,11,58,19.20
2017,05,27,11,59,19.20
2017,05,27,12,00,19.20
2017,05,27,12,01,19.20
2017,05,27,12,02,19.30
2017,05,27,12,03,19.20
2017,05,27,12,04,19.20
2017,05,27,12,05,19.30
2017,05,27,12,06,19.40
2017,05,27,12,07,19.50
2017,05,27,12,08,19.60
2017,05,27,12,09,19.60
2017,05,27,12,10,19.70
2017,05,27,12,11,19.80
2017,05,27,12,12,19.80
2017,05,27,12,13,19.80
2017,05,27,12,14,19.70
2017,05,27,12,15,19.50
2017,05,27,12,16,19.50
2017,05,27,12,17,19.40
2017,05,27,12,18,19.30
2017,05,27,12,19,19.30
2017,05,27,12,20,19.30
2017,05,27,12,21,19.30
2017,05,27,12,22,19.30
2017,05,27,12,23,19.30
2017,05,27,12,24,19.30
2017,05,27,12,25,19.30
2017,05,27,12,26,19.30
2017,05,27,12,27,19.30
2017,05,27,12,28,19.20
2017,05,27,12,29,19.30
2017,05,27,12,30,19.40
2017,05,27,12,31,19.50
2017,05,27,12,32,19.50
2017,05,27,12,33,19.60
2017,05,27,12,34,19.70
2017,05,27,12,35,19.80
2017,05,27,12,36,19.90
2017,05,27,12,37,20.00
2017,05,27,12,38,20.10
2017,05,27,12,39,20.10
2017,05,27,12,40,20.20
2017,05,27,12,41,20.20
2017,05,27,12,42,20.20
2017,05,27,12,43,20.30
2017,05,27,12,44,20.30
2017,05,27,12,45,20.40
2017,05,27,12,46,20.40
2017,05,27,12,47,20.40
2017,05,27,12,48,20.40
2017,05,27,12,49,20.60
2017,05,27,12,50,20.60
2017,05,27,12,51,20.70
2017,05,27,12,52,20.60
2017,05,27,12,53,20.60
2017,05,27,12,54,20.60
2017,05,27,12,55,20.60
2017,05,27,12,56,20.60
2017,05,27,12,57,20.60
2017,05,27,12,58,20.60
2017,05,27,12,59,20.60
2017,05,27,13,00,20.70
2017,05,27,13,01,20.60
2017,05,27,13,02,20.60
2017,05,27,13,03,20.50
2017,05,27,13,04,20.40
2017,05,27,13,05,20.40
2017,05,27,13,06,20.40
2017,05,27,13,07,20.40
2017,05,27,13,08,20.40
2017,05,27,13,09,20.50
2017,05,27,13,10,20.60
2017,05,27,13,11,20.70
2017,05,27,13,12,20.80
2017,05,27,13,13,20.80
2017,05,27,13,14,20.90
2017,05,27,13,15,20.90
2017,05,27,13,16,21.00
2017,05,27,13,17,21.10
2017,05,27,13,18,21.10
2017,05,27,13,19,21.10
2017,05,27,13,20,21.10
2017,05,27,13,21,21.10
2017,05,27,13,22,21.10
2017,05,27,13,23,21.10
2017,05,27,13,24,21.10
2017,05,27,13,25,21.10
2017,05,27,13,26,21.10
2017,05,27,13,27,21.10
2017,05,27,13,28,21.20
2017,05,27,13,29,21.20
2017,05,27,13,30,21.20
2017,05,27,13,31,21.20
2017,05,27,13,32,21.30
2017,05,27,13,33,21.30
2017,05,27,13,34,21.30
2017,05,27,13,35,21.40
2017,05,27,13,36,21.40
2017,05,27,13,37,21.40
2017,05,27,13,38,21.30
2017,05,27,13,39,21.30
2017,05,27,13,40,21.40
2017,05,27,13,41,21.40
2017,05,27,13,42,21.40
2017,05,27,13,43,21.40
2017,05,27,13,44,21.50
2017,05,27,13,45,21.50
2017,05,27,13,46,21.50
2017,05,27,13,47,21.50
2017,05,27,13,48,21.60
2017,05,27,13,49,21.60
2017,05,27,13,50,21.60
2017,05,27,13,51,21.60
2017,05,27,13,52,21.70
2017,05,27,13,53,21.70
2017,05,27,13,54,21.80
2017,05,27,13,55,21.80
2017,05,27,13,56,21.90
2017,05,27,13,57,21.90
2017,05,27,13,58,21.90
2017,05,27,13,59,21.90
2017,05,27,14,00,21.90
2017,05,27,14,01,22.00
2017,05,27,14,02,22.10
2017,05,27,14,03,22.10
2017,05,27,14,04,22.20
2017,05,27,14,05,22.30
2017,05,27,14,06,22.30
2017,05,27,14,07,22.30
2017,05,27,14,08,22.30
2017,05,27,14,09,22.30
2017,05,27,14,10,22.20
2017,05,27,14,11,22.20
2017,05,27,14,12,22.20
2017,05,27,14,13,22.30
2017,05,27,14,14,22.30
2017,05,27,14,15,22.30
2017,05,27,14,16,22.30
2017,05,27,14,17,22.20
2017,05,27,14,18,22.20
2017,05,27,14,19,22.20
2017,05,27,14,20,22.20
2017,05,27,14,21,22.30
2017,05,27,14,22,22.30
2017,05,27,14,23,22.40
2017,05,27,14,24,22.40
2017,05,27,14,25,22.50
2017,05,27,14,26,22.60
2017,05,27,14,27,22.60
2017,05,27,14,28,22.70
2017,05,27,14,29,22.70
2017,05,27,14,30,22.80
2017,05,27,14,31,22.80
2017,05,27,14,32,22.70
2017,05,27,14,33,22.70
2017,05,27,14,34,22.70
2017,05,27,14,35,22.70
2017,05,27,14,36,22.70
2017,05,27,14,37,22.70
2017,05,27,14,38,22.70
2017,05,27,14,39,22.70
2017,05,27,14,40,22.60
2017,05,27,14,41,22.60
2017,05,27,14,42,22.60
2017,05,27,14,43,22.70
2017,05,27,14,44,22.70
2017,05,27,14,45,22.70
2017,05,27,14,46,22.70
2017,05,27,14,47,22.60
2017,05,27,14,48,22.70
2017,05,27,14,49,22.60
2017,05,27,14,50,22.60
2017,05,27,14,51,22.60
2017,05,27,14,52,22.70
2017,05,27,14,53,22.70
2017,05,27,14,54,22.80
2017,05,27,14,55,22.80
2017,05,27,14,56,22.90
2017,05,27,14,57,23.00
2017,05,27,14,58,23.10
2017,05,27,14,59,23.20
2017,05,27,15,00,23.20
2017,05,27,15,01,23.20
2017,05,27,15,02,23.10
2017,05,27,15,03,23.10
2017,05,27,15,04,23.20
2017,05,27,15,05,23.20
2017,05,27,15,06,23.30
2017,05,27,15,07,23.30
2017,05,27,15,08,23.30
2017,05,27,15,09,23.30
2017,05,27,15,10,23.30
2017,05,27,15,11,23.30
2017,05,27,15,12,23.30
2017,05,27,15,13,23.30
2017,05,27,15,14,23.30
2017,05,27,15,15,23.30
2017,05,27,15,16,23.30
2017,05,27,15,17,23.30
2017,05,27,15,18,23.40
2017,05,27,15,19,23.40
2017,05,27,15,20,23.40
2017,05,27,15,21,23.40
2017,05,27,15,22,23.50
2017,05,27,15,23,23.50
2017,05,27,15,24,23.50
2017,05,27,15,25,23.50
2017,05,27,15,26,23.40
2017,05,27,15,27,23.50
2017,05,27,15,28,23.50
2017,05,27,15,29,23.50
2017,05,27,15,30,23.50
2017,05,27,15,31,23.50
2017,05,27,15,32,23.50
2017,05,27,15,33,23.50
2017,05,27,15,34,23.50
2017,05,27,15,35,23.60
2017,05,27,15,36,23.60
2017,05,27,15,37,23.70
2017,05,27,15,38,23.70
2017,05,27,15,39,23.70
2017,05,27,15,40,23.70
2017,05,27,15,41,23.70
2017,05,27,15,42,23.80
2017,05,27,15,43,23.80
2017,05,27,15,44,23.80
2017,05,27,15,45,23.80
2017,05,27,15,46,23.90
2017,05,27,15,47,23.90
2017,05,27,15,48,23.90
2017,05,27,15,49,24.00
2017,05,27,15,50,24.00
2017,05,27,15,51,24.00
2017,05,27,15,52,24.00
2017,05,27,15,53,24.00
2017,05,27,15,54,24.00
2017,05,27,15,55,24.00
2017,05,27,15,56,24.00
2017,05,27,15,57,24.10
2017,05,27,15,58,24.20
2017,05,27,15,59,24.30
2017,05,27,16,00,24.30
2017,05,27,16,01,24.30
2017,05,27,16,02,24.30
2017,05,27,16,03,24.40
2017,05,27,16,04,24.50
2017,05,27,16,05,24.50
2017,05,27,16,06,24.60
2017,05,27,16,07,24.50
2017,05,27,16,08,24.40
2017,05,27,16,09,24.20
2017,05,27,16,10,24.20
2017,05,27,16,11,24.10
2017,05,27,16,12,24.10
2017,05,27,16,13,24.00
2017,05,27,16,14,24.00
2017,05,27,16,15,23.90
2017,05,27,16,16,24.00
2017,05,27,16,17,24.00
2017,05,27,16,18,24.10
2017,05,27,16,19,24.10
2017,05,27,16,20,24.10
2017,05,27,16,21,24.00
2017,05,27,16,22,24.00
2017,05,27,16,23,24.00
2017,05,27,16,24,24.00
2017,05,27,16,25,24.00
2017,05,27,16,26,24.00
2017,05,27,16,27,24.00
2017,05,27,16,28,24.00
2017,05,27,16,29,24.00
2017,05,27,16,30,24.00
2017,05,27,16,31,23.90
2017,05,27,16,32,23.90
2017,05,27,16,33,23.80
2017,05,27,16,34,23.80
2017,05,27,16,35,23.80
2017,05,27,16,36,23.80
2017,05,27,16,37,23.80
2017,05,27,16,38,23.80
2017,05,27,16,39,23.80
2017,05,27,16,40,23.80
2017,05,27,16,41,23.70
2017,05,27,16,42,23.70
2017,05,27,16,43,23.70
2017,05,27,16,44,23.70
2017,05,27,16,45,23.70
2017,05,27,16,46,23.60
2017,05,27,16,47,23.60
2017,05,27,16,48,23.60
2017,05,27,16,49,23.60
2017,05,27,16,50,23.60
2017,05,27,16,51,23.60
2017,05,27,16,52,23.70
2017,05,27,16,53,23.70
2017,05,27,16,54,23.70
2017,05,27,16,55,23.70
2017,05,27,16,56,23.70
2017,05,27,16,57,23.70
2017,05,27,16,58,23.70
2017,05,27,16,59,23.60
2017,05,27,17,00,23.60
2017,05,27,17,01,23.50
2017,05,27,17,02,23.40
2017,05,27,17,03,23.40
2017,05,27,17,04,23.30
2017,05,27,17,05,23.20
2017,05,27,17,06,23.10
2017,05,27,17,07,23.10
2017,05,27,17,08,23.00
2017,05,27,17,09,22.90
2017,05,27,17,10,22.90
2017,05,27,17,11,22.90
2017,05,27,17,12,22.90
2017,05,27,17,13,22.90
2017,05,27,17,14,23.00
2017,05,27,17,15,23.00
2017,05,27,17,16,23.10
2017,05,27,17,17,23.10
2017,05,27,17,18,23.20
2017,05,27,17,19,23.20